Regional Weather Roundup
Issued by NWS

Home | Current Version | Previous Version | Graphics & Text | Print | Product List | Glossary On
Versions: 1 2 3 4 5 6 7 8 9 10 11 12 13 14 15 16 17 18 19 20 21 22 23 24 25 26 27 28 29 30 31 32 33 34 35 36 37 38 39 40 41 42 43 44 45 46 47 48 49 50
000
ASUS45 KCYS 022210
RWRWY

WYOMING REGIONAL WEATHER ROUNDUP
NATIONAL WEATHER SERVICE CHEYENNE WY
400 PM MDT SUN AUG 02 2015

NOTE:  "FAIR" INDICATES FEW OR NO CLOUDS BELOW 12,000 FEET
WITH NO SIGNIFICANT WEATHER AND/OR OBSTRUCTIONS TO VISIBILITY.

WYZ001-022300-
YELLOWSTONE NATIONAL PARK

CITY           SKY/WX    TMP DP  RH WIND       PRES   REMARKS
LK YELLOWSTONE   N/A     79  30  16 VRB3      30.29F
W YELLOWSTONE  NOT AVBL

$$
WYZ002>013-054>058-071-098>099-022300-
NORTHERN WYOMING

CITY           SKY/WX    TMP DP  RH WIND       PRES   REMARKS
JACKSON        SUNNY     84  28  13 VRB5      30.15F
CODY           FAIR      82  45  26 N15       30.08F
GREYBULL       FAIR      98  27   8 W7        29.94F HX  92
WORLAND        FAIR      97  31   9 NE7       29.97F HX  91
SHERIDAN       FAIR      91  38  15 NW15G31   30.01F
BUFFALO        FAIR      86  39  19 N20G28    30.08F
GILLETTE       FAIR      91  41  17 N14G23    30.01S
HULETT         FAIR      84  48  28 E9G16     30.04S
NEWCASTLE      FAIR      91  39  16 S8        29.98S

$$
WYZ014>020-022>026-101>103-022300-
CENTRAL WYOMING

CITY           SKY/WX    TMP DP  RH WIND       PRES   REMARKS
BIG PINEY      FAIR      86  26  11 W8        30.18F
PINEDALE       FAIR      84  27  12 CALM      30.19F
DUBOIS         FAIR      86  21   9 SE5       30.19F
LANDER         FAIR      91  27  10 VRB3      30.06F
RIVERTON       FAIR      93  24   8 N12G23    30.08F
CASPER         FAIR      95  16   5 NE12      30.04F
DOUGLAS        FAIR      93  27   9 CALM      30.02F

$$
WYZ021-027>030-104>119-022300-
SOUTHERN WYOMING

CITY           SKY/WX    TMP DP  RH WIND       PRES   REMARKS
EVANSTON       FAIR      86  25  11 E9G18     30.16F
KEMMERER       FAIR     N/A N/A N/A CALM      30.18F
FORT BRIDGER   CLEAR     88  25  10 NE7       30.18F
ROCK SPRINGS   FAIR      86  29  12 VRB5      30.13F
DIXON          FAIR      86  37  17 W8        30.14F
RAWLINS        FAIR      89  26  10 E9G21     30.16F
SARATOGA       FAIR      86  28  12 CALM      30.18F
LARAMIE        FAIR      82  37  20 SE15      30.19F
CHEYENNE       FAIR      87  41  19 SE8       30.13F
TORRINGTON     FAIR      93  38  14 E14G22    29.97F
PINE BLUFFS    FAIR      82  46  28 NE6       30.08F

$$



USA.gov is the U.S. government's official web portal to all federal, state and local government web resources and services.